This demonstration page uses our WeatherBlox Daily Observations layout. Learn more.

Left ArrowRight Arrow

39.08367, -84.50855

Hourly Observations for April 27, 2022

Temp ( °F °C ) Dew Point ( °F °C ) Humidity (%) Winds ( mph kmh ) Pressure ( in mb ) Visibility ( mi km ) Precip ( " mm )
12:53 am 00:53 Clear 44 6.7 33 0.6 65 65 Calm 30.29 1026 10 16 0.00 0.00
1:53 am 01:53 Clear 45 7.2 34 1.1 66 66 Calm 30.29 1026 10 16 0.00 0.00
2:53 am 02:53 Clear 43 6.1 34 1.1 71 71 S 5 7 30.29 1026 10 16 0.00 0.00
3:53 am 03:53 Clear 43 6.1 33 0.6 68 68 VRB 3 6 30.29 1026 10 16 0.00 0.00
4:53 am 04:53 Clear 39 3.9 34 1.1 82 82 SSW 3 6 30.29 1026 10 16 0.00 0.00
5:53 am 05:53 Clear 37 2.8 35 1.7 93 93 Calm 30.30 1026 10 16 0.00 0.00
6:53 am 06:53 Sunny 35 1.7 35 1.7 100 100 Calm 30.31 1026 10 16 0.00 0.00
7:53 am 07:53 Sunny 41 5 34 1.1 76 76 VRB 5 7 30.32 1027 10 16 0.00 0.00
8:53 am 08:53 Sunny 44 6.7 33 0.6 65 65 N 7 11 30.34 1027 10 16 0.00 0.00
9:53 am 09:53 Sunny 47 8.3 33 0.6 59 59 VRB 3 6 30.34 1027 10 16 0.00 0.00
10:53 am 10:53 Sunny 49 9.4 33 0.6 55 55 VRB 3 6 30.34 1028 10 16 0.00 0.00
11:53 am 11:53 Sunny 53 11.7 35 1.7 51 51 VRB 5 7 30.32 1027 10 16 0.00 0.00
12:53 pm 12:53 Sunny 55 12.8 34 1.1 45 45 VRB 3 6 30.32 1027 10 16 0.00 0.00
1:53 pm 13:53 Sunny 58 14.4 37 2.8 46 46 W 10 17 30.29 1026 10 16 0.00 0.00
2:53 pm 14:53 Sunny 61 16.1 37 2.8 41 41 VRB 3 6 30.26 1025 10 16 0.00 0.00
3:53 pm 15:53 Sunny 63 17.2 38 3.3 40 40 NW 5 7 30.24 1024 10 16 0.00 0.00
4:53 pm 16:53 Sunny 63 17.2 36 2.2 37 37 NNW 15 24 30.22 1024 10 16 0.00 0.00
5:53 pm 17:53 Sunny 63 17.2 37 2.8 38 38 N 9 15 30.22 1023 10 16 0.00 0.00
6:53 pm 18:53 Sunny 60 15.6 36 2.2 41 41 N 13 20 30.22 1023 10 16 0.00 0.00
7:53 pm 19:53 Partly Cloudy 58 14.4 36 2.2 44 44 N 8 13 30.22 1023 10 16 0.00 0.00
8:53 pm 20:53 Mostly Clear 56 13.3 35 1.7 46 46 N 7 11 30.21 1023 10 16 0.00 0.00
9:53 pm 21:53 Cloudy 54 12.2 37 2.8 53 53 NNE 6 9 30.22 1023 10 16 0.00 0.00
10:53 pm 22:53 Clear 50 10 36 2.2 59 59 NE 7 11 30.23 1024 10 16 0.00 0.00
11:53 pm 23:53 Mostly Clear 45 7.2 37 2.8 74 74 NNE 7 11 30.24 1024 10 16 0.00 0.00

Powered by AerisWeather